SAFIR 2

Satellite information

Favourite Embed

Satellite Type and Status

PAYLOADIN ORBIT

Key statistics

Satellite SAFIR 2 at a glance.

Uptime

9960

Days in orbit

Revolutions

≈ 14.3

Per day

Orbit

SSO

Sun Synchronous Orbit

Inclination

99.0

Latest

Satellite identification and parameters

Extended collection of information and parameters for SAFIR 2.

Object identification

Identified? True

Debris? False

Object name: SAFIR 2

International designator: 1998-043F

Object number (NORAD): 25399

Object ID (CCSDS): 25399

Country: GERMANY (GER)

Current information (Y/N): Y

RCS size: MEDIUM

Orbital parameters

Period: 101.016 minutes

Inclination: 98.9511 deg

SMA: 7184.879 km

Apoapsis: 808.784 km

Periapsis: 804.705 km

RAAN: 265.5093 deg

Eccentricy: 0.00028389

Argument of periapsis: 93.6803 deg

Mean anomaly: 266.4701 deg

Mean motion: 14.25520792 rev/day

Mean motion (dot): 0.00000233 rev/day2

B* drag term: 0.00011826273 1/REarth

Two-line elements (TLE)

Creation date: Oct. 16, 2025, 2:37 a.m.

Reference frame: TEME

Reference center: EARTH

Epoch: Oct. 15, 2025, 9:14 p.m. UTC

TLE line 0: 0 SAFIR 2

TLE line 1: 1 25399U 98043F 25288.88475290 .00000233 00000-0 11826-3 0 9999

TLE line 2: 2 25399 98.9511 265.5093 0002839 93.6803 266.4701 14.25520792416525

Live tracking on map

Real-time ground track for satellite SAFIR 2.

In-orbit conjunctions

A list of the most updated potential collisions computed for object SAFIR 2.

Target Orbit TCA Probability of collision Miss distance Type
CZ-4 DEB SSO 2025-07-05 17:51:36 0.0002946025 235.0 (m) DEBRIS
CZ-6A DEB LEO 2025-06-28 15:30:52 0.0003703538 592.0 (m) DEBRIS
FENGYUN 1C DEB SSO 2025-06-16 16:21:08 0.0001502549 823.0 (m) DEBRIS
CZ-6A DEB LEO 2025-04-10 06:20:17 0.001213255 42.0 (m) DEBRIS
CZ-6A DEB LEO 2025-04-10 04:39:12 0.0003818049 921.0 (m) DEBRIS

Associated space launch

Resurs-O1 N4 or Resurs-O1 2 is the fourth earth observation satellite in the Russian Resurs-O1 program.

SAFIR 2 was lifted into orbit during the mission ‘Zenit-2 | Resurs-O1’, on board a Zenit-2 space rocket.

The launch took place on July 10, 1998, 6:30 a.m. from 45/1.

For more information about the launch, click the button.

Launch to space Zenit-2 | Resurs-O1
Zenit-2 | Resurs-O1

Agency: N/A

Status: Launch Successful

Launch date: July 10, 1998, 6:30 a.m. UTC

Rocket: Zenit-2

Launch pad: 45/1

Location: Baikonur Cosmodrome, Republic of Kazakhstan

...

Latest news about this satellite

There are no fresh news available about this satellite. Check back as we update our databases every day.


Newsletter sign-up

Weekly statistics, charts and insights to help you stay on top of the space industry.